Location: Cambridge (historical)
(38.6883°N, 119.0140°W)
Time: 17:27:40
(UTC+00:00)

Cosmos 1455 - Pass Details

Date: 29 October 2020
Orbit: 500 x 521 km, 82.5° (Epoch: 23 November)

Event Time Altitude Azimuth Distance (km) Brightness Sun altitude
Rises 13:31:42 0° 354° (N) 2,655 5.6 -10.1°
Reaches altitude 10° 13:33:51 10° 355° (N) 1,764 4.8 -9.7°
Maximum altitude 13:37:44 79° 83° (E) 537 2.4 -8.9°
Drops below altitude 10° 13:41:34 10° 170° (S) 1,748 5.2 -8.2°
Sets 13:43:41 0° 171° (S) 2,630 6.1 -7.8°
